KINDAKUN POINT, BC current weather conditions

sailwx.info

Wind from 350 at 15 knots

Air temperature 15.0° C

Last reported at 2014-Aug-22 18:00 UTC.
Time now 2014-Aug-22 19:45 UTC

Location: N 53°19' W 132°46'.
View on Google Maps.

See reports from other nearby stations

  
Tides and Currents Weather Stations Pressure Air Temp Water Temp Dewpoint Dewpoint Depression Visibility Wind Speed Wind Dir Waves Ship Positions
date/time (UTC)wind fromknots sea level pressurealtimeterstation pressurevisibilityair tempwater tempwave heightnotes
2014-Aug-22 18:00 350 15 15.0
2014-Aug-22 17:00 350 8 15.0
2014-Aug-22 16:00 15.0
2014-Aug-22 15:00 050 3 15.0
2014-Aug-22 14:00 360 4 14.0
2014-Aug-22 13:00 030 6 15.0
2014-Aug-22 12:00 350 12 15.0
2014-Aug-22 11:00 350 12 15.0
2014-Aug-22 10:00 340 14 15.0
2014-Aug-22 09:00 340 15 15.0
2014-Aug-22 08:00 350 10 15.0
2014-Aug-22 07:00 350 15 15.0
2014-Aug-22 06:00 350 15 15.0
2014-Aug-22 05:00 360 16 gusting 20 15.0
2014-Aug-22 04:00 340 23 15.0
2014-Aug-22 03:00 340 22 16.0
2014-Aug-22 02:00 350 19 16.0
2014-Aug-22 01:00 340 18 16.0
2014-Aug-22 00:00 340 16 16.0
2014-Aug-21 23:00 340 16 16.0
2014-Aug-21 22:00 340 16 16.0
2014-Aug-21 21:00 340 15 16.0
2014-Aug-21 20:00 360 12 16.0
2014-Aug-21 19:00 010 6 15.0
2014-Aug-21 18:00 010 7 15.0
2014-Aug-21 17:00 340 1 15.0
2014-Aug-21 16:00 140 2 15.0
2014-Aug-21 15:00 14.0
2014-Aug-21 14:00 130 2 13.0
2014-Aug-21 13:00 130 4 13.0
2014-Aug-21 12:00 13.0
2014-Aug-21 11:00 040 1 14.0
2014-Aug-21 10:00 150 4 14.0
2014-Aug-21 09:00 140 3 14.0
2014-Aug-21 08:00 15.0
2014-Aug-21 07:00 070 1 15.0
2014-Aug-21 06:00 050 1 15.0
2014-Aug-21 05:00 010 3 15.0
2014-Aug-21 04:00 330 5 15.0
2014-Aug-21 03:00 310 4 16.0
2014-Aug-21 02:00 020 1 16.0
2014-Aug-21 01:00 300 7 16.0
2014-Aug-21 00:00 320 7 16.0
2014-Aug-20 23:00 310 8 17.0
2014-Aug-20 22:00 320 9 16.0
2014-Aug-20 21:00 340 8 16.0
2014-Aug-20 20:00 330 5 16.0
2014-Aug-20 19:00 360 4 15.0